Hot Springs, VA

11:08 PM EST on December 04, 2016 (GMT -0500)
Ingalls

Weather History for KHSP - November, 2010

Change the Weather History Date:

Tuesday, November 30, 2010

  Actual Average Record
Temperature  
Mean Temperature 44 °F -  
Max Temperature 53 °F 41 °F 66 °F (1998)
Min Temperature 35 °F 28 °F 15 °F (1999)
Degree Days  
Heating Degree Days 21    
Moisture  
Dew Point 44 °F    
Average Humidity 100    
Maximum Humidity 100    
Minimum Humidity 93    
Precipitation  
Precipitation 0.00 in - - ()
Sea Level Pressure  
Sea Level Pressure 30.12 in    
Wind  
Wind Speed 13 mph (SSE)    
Max Wind Speed 18 mph    
Max Gust Speed 31 mph    
Averages and records for this station are not official NWS values.
T = Trace of Precipitation, MM = Missing Value Source: NWS Daily Summary

Daily Weather History Graph

Daily Weather History Graph

Search for Another Location

Airport or City:

Trip Planner

Search our weather history database for the weather conditions in past years. The results will help you decide how hot, cold, wet, or windy it might be!

Date:

Astronomy

Nov. 30, 2010 Rise Set
Actual Time 7:15 AM EST 5:00 PM EST
Civil Twilight 6:46 AM EST 5:29 PM EST
Nautical Twilight 6:13 AM EST 6:01 PM EST
Astronomical Twilight 5:42 AM EST 6:33 PM EST
Moon 1:34 AM EST (11/30) 1:26 PM EST (11/30)
Length of Visible Light 10h 42m
Length of Day
9h 45m
Waning Crescent, 29% of the Moon is Illuminated
Nov 30
Waning Crescent
Dec 5
New
Dec 13
First Quarter
Dec 21
Full
Dec 27
Last Quarter

Hourly Weather History & Observations

Time (EST) Temp. Windchill Dew Point Humidity Pressure Visibility Wind Dir Wind Speed Gust Speed Precip Events Conditions
12:00 AM 37.4 °F 28.9 °F 35.6 °F 93% 30.30 in 10.0 mi South 13.8 mph 23.0 mph N/A   Overcast
12:20 AM 37.4 °F 28.9 °F 37.4 °F 100% 30.28 in 2.0 mi SSE 13.8 mph 19.6 mph N/A   Overcast
12:40 AM 35.6 °F 26.6 °F 35.6 °F 100% 30.27 in 1.8 mi SSE 13.8 mph 19.6 mph N/A   Overcast
1:00 AM 35.6 °F 27.1 °F 35.6 °F 100% 30.26 in 3.0 mi SSE 12.7 mph 20.7 mph N/A   Overcast
1:20 AM 37.4 °F 29.3 °F 37.4 °F 100% 30.27 in 2.5 mi SSE 12.7 mph 19.6 mph N/A   Overcast
1:40 AM 37.4 °F 29.3 °F 37.4 °F 100% 30.26 in 0.2 mi SSE 12.7 mph 19.6 mph N/A   Overcast
2:00 AM 37.4 °F 28.5 °F 37.4 °F 100% 30.25 in 0.2 mi SSE 15.0 mph 20.7 mph N/A   Overcast
2:20 AM 37.4 °F 29.8 °F 37.4 °F 100% 30.25 in 0.2 mi SSE 11.5 mph 21.9 mph N/A   Overcast
2:40 AM 37.4 °F 29.8 °F 37.4 °F 100% 30.24 in 0.2 mi SSE 11.5 mph 19.6 mph N/A   Overcast
3:00 AM 37.4 °F 30.3 °F 37.4 °F 100% 30.24 in 0.2 mi SE 10.4 mph 18.4 mph N/A   Overcast
3:20 AM 39.2 °F 33.0 °F 39.2 °F 100% 30.24 in 0.2 mi SSE 9.2 mph 23.0 mph N/A   Overcast
3:40 AM 41.0 °F 34.3 °F 41.0 °F 100% 30.22 in 0.2 mi SSE 11.5 mph 19.6 mph N/A   Overcast
4:00 AM 39.2 °F 31.2 °F 39.2 °F 100% 30.20 in 0.2 mi SE 13.8 mph 20.7 mph N/A   Overcast
4:20 AM 41.0 °F 33.9 °F 41.0 °F 100% 30.20 in 0.2 mi SSE 12.7 mph 18.4 mph N/A   Overcast
4:40 AM 41.0 °F 35.2 °F 41.0 °F 100% 30.21 in 0.2 mi SSE 9.2 mph 20.7 mph N/A   Overcast
5:00 AM 41.0 °F 34.3 °F 41.0 °F 100% 30.20 in 0.2 mi SSE 11.5 mph 19.6 mph N/A   Overcast
5:20 AM 39.2 °F 33.0 °F 39.2 °F 100% 30.20 in 0.2 mi SSE 9.2 mph - N/A   Overcast
5:40 AM 41.0 °F 34.3 °F 41.0 °F 100% 30.19 in 0.2 mi SE 11.5 mph 17.3 mph N/A   Overcast
6:00 AM 42.8 °F 36.6 °F 42.8 °F 100% 30.20 in 0.2 mi SSE 11.5 mph 17.3 mph N/A   Overcast
6:20 AM 42.8 °F 36.2 °F 42.8 °F 100% 30.18 in 0.2 mi SE 12.7 mph 20.7 mph N/A   Overcast
6:40 AM 42.8 °F 36.6 °F 42.8 °F 100% 30.19 in 0.2 mi SE 11.5 mph - N/A   Overcast
7:00 AM 42.8 °F 35.8 °F 42.8 °F 100% 30.18 in 0.2 mi SSE 13.8 mph 19.6 mph N/A   Overcast
7:20 AM 42.8 °F 35.4 °F 42.8 °F 100% 30.17 in 0.2 mi SE 15.0 mph 23.0 mph N/A   Overcast
7:40 AM 42.8 °F 35.8 °F 42.8 °F 100% 30.18 in 0.2 mi SE 13.8 mph 21.9 mph N/A   Overcast
8:00 AM 42.8 °F 35.4 °F 42.8 °F 100% 30.17 in 0.2 mi SE 15.0 mph 21.9 mph N/A   Overcast
8:20 AM 44.6 °F 38.1 °F 44.6 °F 100% 30.18 in 0.2 mi SE 13.8 mph 19.6 mph N/A   Overcast
8:40 AM 44.6 °F 38.4 °F 44.6 °F 100% 30.16 in 0.2 mi SE 12.7 mph 19.6 mph N/A   Overcast
9:00 AM 44.6 °F 38.8 °F 44.6 °F 100% 30.17 in 0.2 mi SE 11.5 mph 20.7 mph N/A   Overcast
9:20 AM 44.6 °F 38.4 °F 44.6 °F 100% 30.15 in 0.2 mi SE 12.7 mph 23.0 mph N/A   Overcast
9:40 AM 44.6 °F 37.8 °F 44.6 °F 100% 30.15 in 0.2 mi SE 15.0 mph 18.4 mph N/A   Overcast
10:00 AM 44.6 °F 37.8 °F 44.6 °F 100% 30.15 in 0.2 mi SE 15.0 mph 19.6 mph N/A   Overcast
10:20 AM 44.6 °F 39.2 °F 44.6 °F 100% 30.15 in 0.2 mi SE 10.4 mph 20.7 mph N/A   Overcast
11:00 AM 44.6 °F 39.7 °F 44.6 °F 100% 30.13 in 0.2 mi SSE 9.2 mph 17.3 mph N/A   Overcast
11:20 AM 44.6 °F 38.4 °F 44.6 °F 100% 30.12 in 0.2 mi SSE 12.7 mph 19.6 mph N/A   Overcast
11:40 AM 44.6 °F 38.4 °F 44.6 °F 100% 30.10 in 0.2 mi SSE 12.7 mph 17.3 mph N/A   Overcast
12:00 PM 44.6 °F 38.8 °F 44.6 °F 100% 30.09 in 0.2 mi SSE 11.5 mph 21.9 mph N/A   Overcast
12:20 PM 44.6 °F 38.1 °F 44.6 °F 100% 30.08 in 0.2 mi SSE 13.8 mph 21.9 mph N/A   Overcast
12:40 PM 44.6 °F 38.8 °F 44.6 °F 100% 30.07 in 0.2 mi SSE 11.5 mph 20.7 mph N/A   Overcast
1:00 PM 46.4 °F 40.1 °F 46.4 °F 100% 30.06 in 0.2 mi SSE 15.0 mph 23.0 mph N/A   Overcast
1:20 PM 46.4 °F 40.7 °F 46.4 °F 100% 30.05 in 0.2 mi South 12.7 mph 21.9 mph N/A   Overcast
1:40 PM 46.4 °F 40.1 °F 46.4 °F 100% 30.04 in 0.2 mi SSE 15.0 mph 24.2 mph N/A   Overcast
2:00 PM 46.4 °F 39.5 °F 46.4 °F 100% 30.02 in 0.2 mi SSE 17.3 mph 26.5 mph N/A   Overcast
2:20 PM 48.2 °F - 48.2 °F 100% 30.02 in 0.2 mi SSE 15.0 mph 25.3 mph N/A   Overcast
2:40 PM 48.2 °F - 48.2 °F 100% 30.00 in 0.2 mi SSE 15.0 mph 31.1 mph N/A   Overcast
3:00 PM 48.2 °F - 48.2 °F 100% 30.00 in 0.2 mi SSE 12.7 mph 28.8 mph N/A   Overcast
3:20 PM 48.2 °F - 48.2 °F 100% 30.01 in 0.2 mi SSE 13.8 mph 24.2 mph N/A   Overcast
3:40 PM 48.2 °F - 48.2 °F 100% 30.01 in 0.2 mi SSE 12.7 mph 19.6 mph N/A   Overcast
4:00 PM 50.0 °F - 50.0 °F 100% 30.01 in 0.2 mi SSE 15.0 mph 23.0 mph N/A   Overcast
4:20 PM 51.8 °F - 51.8 °F 100% 30.00 in 0.2 mi SSE 12.7 mph 21.9 mph N/A   Overcast
4:40 PM 50.0 °F - 50.0 °F 100% 29.99 in 0.2 mi SSE 15.0 mph 20.7 mph N/A   Overcast
5:00 PM 51.8 °F - 51.8 °F 100% 29.99 in 0.2 mi SE 10.4 mph 16.1 mph N/A   Overcast
5:20 PM 50.0 °F - 50.0 °F 100% 29.98 in 0.2 mi SE 12.7 mph 19.6 mph N/A   Overcast
5:40 PM 51.8 °F - 51.8 °F 100% 29.97 in 0.2 mi SE 13.8 mph 19.6 mph N/A   Overcast
6:00 PM 51.8 °F - 51.8 °F 100% 29.96 in 0.2 mi SE 17.3 mph 23.0 mph N/A   Overcast
6:20 PM 51.8 °F - 51.8 °F 100% 29.94 in 0.2 mi SE 12.7 mph 25.3 mph N/A   Overcast
6:40 PM 53.6 °F - 53.6 °F 100% 29.94 in 0.2 mi SSE 18.4 mph 29.9 mph N/A   Overcast
7:00 PM 53.6 °F - 53.6 °F 100% 29.94 in 0.2 mi SSE 12.7 mph 23.0 mph N/A   Overcast
7:20 PM 53.6 °F - 53.6 °F 100% 29.93 in 0.2 mi SSE 17.3 mph 27.6 mph N/A   Overcast
7:40 PM 53.6 °F - 53.6 °F 100% 29.93 in 0.2 mi SSE 15.0 mph 32.2 mph N/A   Overcast
8:00 PM 53.6 °F - 53.6 °F 100% 29.92 in 0.2 mi SSE 17.3 mph 28.8 mph N/A   Overcast
8:20 PM 53.6 °F - 53.6 °F 100% 29.90 in 0.2 mi SSE 19.6 mph 29.9 mph N/A   Overcast
8:40 PM 53.6 °F - 53.6 °F 100% 29.90 in 0.2 mi SSE 16.1 mph 31.1 mph N/A   Overcast
9:00 PM 53.6 °F - 53.6 °F 100% 29.88 in 0.2 mi SE 16.1 mph 32.2 mph N/A   Overcast
9:20 PM 53.6 °F - 53.6 °F 100% 29.87 in 0.2 mi SSE 21.9 mph 29.9 mph N/A   Overcast
9:40 PM 53.6 °F - 53.6 °F 100% 29.87 in 0.2 mi South 18.4 mph 33.4 mph N/A   Overcast
10:00 PM 53.6 °F - 53.6 °F 100% 29.86 in 0.2 mi SSE 19.6 mph 32.2 mph N/A   Overcast
10:20 PM 53.6 °F - 53.6 °F 100% 29.85 in 0.2 mi SSE 18.4 mph 31.1 mph N/A   Overcast
10:40 PM 53.6 °F - 53.6 °F 100% 29.84 in 0.2 mi SSE 20.7 mph 28.8 mph N/A   Overcast
11:00 PM 55.4 °F - 55.4 °F 100% 29.83 in 0.2 mi South 17.3 mph 29.9 mph N/A   Overcast
11:20 PM 55.4 °F - 55.4 °F 100% 29.82 in 0.2 mi SSE 15.0 mph 27.6 mph N/A   Overcast
11:40 PM 55.4 °F - 55.4 °F 100% 29.81 in 0.2 mi SSE 17.3 mph 29.9 mph N/A   Overcast